[Date Prev][Date Next][Thread Prev][Thread Next] - [Date Index][Thread Index][Author Index]
2 Line ISS Keps 1-10
- Subject: [sarex] 2 Line ISS Keps 1-10
- From: "Dave Larsen PhD" <doc@xxxxxxxxxxx>
- Date: Thu, 10 Jan 2002 03:28:34 -0800
ISS
1 25544U 98067A 02010.43054002 .00056204 00000-0 77784-3 0 9411
2 25544 51.6383 125.7310 0006431 277.2647 127.0787 15.56532934179424
----
Via the sarex mailing list at AMSAT.ORG courtesy of AMSAT-NA.
To unsubscribe, send "unsubscribe sarex" to Majordomo@amsat.org
AMSAT Home